South Haven, MI

4:39 PM EDT on September 18, 2019 (GMT -0400)
South Haven

Weather History for KLWA - August, 2019

Change the Weather History Date:

Wednesday, August 21, 2019

  Actual Average (KBEH) Record (KBEH)
Temperature  
Mean Temperature 72 °F -  
Max Temperature 80 °F 79 °F 98 °F (1983)
Min Temperature 63 °F 56 °F 43 °F (1950)
Cooling Degree Days 6    
Growing Degree Days 22 (Base 50)    
Moisture  
Dew Point 70 °F    
Average Humidity 94    
Maximum Humidity 100    
Minimum Humidity 79    
Precipitation  
Precipitation 0.00 in - - ()
Sea Level Pressure  
Sea Level Pressure 29.95 in    
Wind  
Wind Speed 2 mph (West)    
Max Wind Speed 12 mph    
Max Gust Speed -    
Visibility 8 miles    
Events Fog , Rain    
Averages and records for this station are not official NWS values.
T = Trace of Precipitation, MM = Missing Value Source: NWS Daily Summary

Daily Weather History Graph

Daily Weather History Graph

Search for Another Location

Airport or City:

Astronomy

Aug. 21, 2019 Rise Set
Actual Time 6:58 AM EDT 8:37 PM EDT
Civil Twilight 6:28 AM EDT 9:06 PM EDT
Nautical Twilight 5:52 AM EDT 9:42 PM EDT
Astronomical Twilight 5:13 AM EDT 10:21 PM EDT
Moon 11:47 PM EDT (8/21) 12:40 PM EDT (8/21)
Length of Visible Light 14h 38m
Length of Day
13h 38m
Waning Gibbous, 69% of the Moon is Illuminated
Aug 21
Waning Gibbous
Aug 23
Last Quarter
Aug 30
New
Sep 5
First Quarter
Sep 14
Full

Hourly Weather History & Observations

Time (EDT) Temp. Heat Index Dew Point Humidity Pressure Visibility Wind Dir Wind Speed Gust Speed Precip Events Conditions
12:16 AM 67.5 °F - 67.5 °F 100% 29.97 in 10.0 mi Calm Calm - N/A   Clear
12:35 AM 66.9 °F - 66.9 °F 100% 29.97 in 7.0 mi Calm Calm - N/A   Clear
12:36 AM 66.9 °F - 66.9 °F 100% 29.97 in 7.0 mi Calm Calm - N/A   Clear
12:55 AM 65.8 °F - 65.8 °F 100% 29.97 in 5.0 mi Calm Calm - N/A   Clear
1:19 AM 66.0 °F - 66.0 °F 100% 29.97 in 10.0 mi Calm Calm - N/A   Clear
1:37 AM 65.3 °F - 65.3 °F 100% 29.97 in 7.0 mi Calm Calm - N/A   Clear
1:55 AM 65.3 °F - 65.3 °F 100% 29.97 in 7.0 mi Calm Calm - N/A   Clear
1:56 AM 65.3 °F - 65.3 °F 100% 29.97 in 7.0 mi Calm Calm - N/A   Clear
2:15 AM 65.1 °F - 65.1 °F 100% 29.97 in 7.0 mi Calm Calm - N/A   Clear
2:16 AM 64.9 °F - 64.9 °F 100% 29.96 in 7.0 mi Calm Calm - N/A   Clear
2:35 AM 64.8 °F - 64.8 °F 100% 29.96 in 7.0 mi Calm Calm - N/A   Clear
2:58 AM 64.8 °F - 64.8 °F 100% 29.96 in 7.0 mi Calm Calm - N/A   Scattered Clouds
3:16 AM 64.6 °F - 64.6 °F 100% 29.96 in 5.0 mi Calm Calm - N/A   Scattered Clouds
3:35 AM 64.4 °F - 64.4 °F 100% 29.97 in 7.0 mi Calm Calm - N/A   Mostly Cloudy
3:36 AM 64.4 °F - 64.4 °F 100% 29.97 in 7.0 mi Calm Calm - N/A   Mostly Cloudy
3:55 AM 66.4 °F - 66.4 °F 100% 29.97 in 10.0 mi Calm Calm - N/A   Mostly Cloudy
4:19 AM 64.4 °F - 64.4 °F 100% 29.96 in 10.0 mi Calm Calm - N/A   Clear
4:37 AM 65.7 °F - 65.7 °F 100% 29.95 in 4.0 mi Calm Calm - N/A   Clear
4:55 AM 64.9 °F - 64.9 °F 100% 29.95 in 0.8 mi Calm Calm - N/A   Mostly Cloudy
4:56 AM 64.8 °F - 64.8 °F 100% 29.95 in 0.8 mi Calm Calm - N/A   Mostly Cloudy
5:15 AM 64.6 °F - 64.6 °F 100% 29.94 in 1.5 mi Calm Calm - N/A   Scattered Clouds
5:35 AM 64.2 °F - 64.2 °F 100% 29.93 in 0.8 mi Calm Calm - N/A   Mist
5:58 AM 64.0 °F - 64.0 °F 100% 29.93 in 3.0 mi Calm Calm - N/A   Clear
6:16 AM 63.9 °F - 63.9 °F 100% 29.93 in 1.0 mi Calm Calm - N/A   Mist
6:35 AM 63.5 °F - 63.5 °F 100% 29.92 in 1.0 mi Calm Calm - N/A   Mostly Cloudy
6:55 AM 63.7 °F - 63.7 °F 100% 29.91 in 1.2 mi Calm Calm - N/A   Scattered Clouds
7:19 AM 63.1 °F - 63.1 °F 100% 29.92 in 0.2 mi Calm Calm - N/A Fog Fog
7:37 AM 63.9 °F - 63.9 °F 100% 29.91 in 0.2 mi Calm Calm - N/A Fog Fog
7:55 AM 65.1 °F - 65.1 °F 100% 29.91 in 0.2 mi Calm Calm - N/A Fog Fog
7:56 AM 65.1 °F - 65.1 °F 100% 29.91 in 0.5 mi Calm Calm - N/A Fog Fog
8:15 AM 67.1 °F - 66.9 °F 99% 29.92 in 5.0 mi Calm Calm - N/A   Scattered Clouds
8:35 AM 69.1 °F - 69.1 °F 100% 29.94 in 10.0 mi Calm Calm - N/A   Scattered Clouds
8:58 AM 73.4 °F - 73.4 °F 100% 29.95 in 10.0 mi WSW 4.6 mph - N/A   Scattered Clouds
9:16 AM 74.7 °F - 74.5 °F 99% 29.95 in 10.0 mi West 11.5 mph - N/A   Scattered Clouds
9:35 AM 75.4 °F - 74.5 °F 97% 29.96 in 10.0 mi West 8.1 mph - N/A   Clear
9:36 AM 75.6 °F - 74.5 °F 96% 29.96 in 10.0 mi WSW 9.2 mph - N/A   Clear
9:55 AM 76.5 °F - 74.5 °F 94% 29.96 in 10.0 mi West 5.8 mph - N/A   Clear
10:19 AM 77.4 °F - 72.3 °F 84% 29.96 in 10.0 mi WSW 9.2 mph - N/A   Clear
10:37 AM 77.7 °F - 72.0 °F 82% 29.96 in 10.0 mi WSW 8.1 mph - N/A   Clear
10:55 AM 78.3 °F - 72.3 °F 82% 29.95 in 10.0 mi WSW 4.6 mph - N/A   Clear
10:56 AM 78.3 °F - 72.3 °F 82% 29.95 in 10.0 mi SW 5.8 mph - N/A   Clear
11:15 AM 78.8 °F - 72.1 °F 80% 29.96 in 10.0 mi West 5.8 mph - N/A   Clear
11:16 AM 79.0 °F - 72.1 °F 79% 29.96 in 10.0 mi West 6.9 mph - N/A   Clear
11:35 AM 78.6 °F - 72.1 °F 80% 29.96 in 10.0 mi West 5.8 mph - N/A   Clear
11:58 AM 79.0 °F - 72.5 °F 80% 29.96 in 10.0 mi WSW 8.1 mph - N/A   Scattered Clouds
12:15 PM 78.8 °F - 72.7 °F 81% 29.97 in 10.0 mi West 8.1 mph - N/A   Scattered Clouds
12:35 PM 78.6 °F - 73.2 °F 83% 29.96 in 10.0 mi West 10.4 mph - N/A   Scattered Clouds
12:55 PM 78.4 °F - 73.4 °F 84% 29.97 in 10.0 mi West 4.6 mph - N/A   Mostly Cloudy
1:19 PM 78.8 °F - 73.6 °F 84% 29.97 in 10.0 mi West 5.8 mph - N/A   Scattered Clouds
1:37 PM 80.4 °F 85.1 °F 73.8 °F 80% 29.97 in 10.0 mi West 8.1 mph - N/A   Scattered Clouds
1:55 PM 79.2 °F - 73.6 °F 83% 29.97 in 10.0 mi West 8.1 mph - N/A   Scattered Clouds
2:15 PM 79.2 °F - 74.1 °F 84% 29.96 in 10.0 mi West 8.1 mph - N/A   Scattered Clouds
2:35 PM 78.8 °F - 74.3 °F 86% 29.96 in 10.0 mi WSW 10.4 mph - N/A   Scattered Clouds
2:40 PM 78.8 °F - 73.9 °F 85% 29.96 in 10.0 mi WSW 9.2 mph - N/A   Scattered Clouds
2:58 PM 79.7 °F - 73.8 °F 82% 29.95 in 10.0 mi WSW 9.2 mph - N/A   Scattered Clouds
3:16 PM 79.7 °F - 73.8 °F 82% 29.95 in 10.0 mi WSW 8.1 mph - N/A   Scattered Clouds
3:35 PM 79.3 °F - 73.2 °F 81% 29.95 in 10.0 mi WSW 11.5 mph - N/A   Scattered Clouds
3:36 PM 79.2 °F - 73.2 °F 82% 29.95 in 10.0 mi WSW 11.5 mph - N/A   Scattered Clouds
3:55 PM 79.0 °F - 73.6 °F 83% 29.95 in 10.0 mi WSW 8.1 mph - N/A   Mostly Cloudy
3:56 PM 79.0 °F - 73.6 °F 83% 29.95 in 10.0 mi SW 9.2 mph - N/A   Mostly Cloudy
4:19 PM 77.9 °F - 73.6 °F 86% 29.95 in 10.0 mi West 4.6 mph - N/A   Overcast
4:37 PM 77.9 °F - 73.2 °F 85% 29.95 in 10.0 mi West 6.9 mph - N/A   Overcast
4:55 PM 77.9 °F - 72.3 °F 83% 29.95 in 10.0 mi WSW 8.1 mph - N/A   Overcast
5:15 PM 77.0 °F - 73.6 °F 89% 29.94 in 10.0 mi WSW 4.6 mph - N/A   Overcast
5:16 PM 77.2 °F - 73.4 °F 88% 29.94 in 10.0 mi WSW 3.5 mph - N/A   Overcast
5:35 PM 77.5 °F - 71.1 °F 80% 29.94 in 10.0 mi WSW 5.8 mph - N/A   Overcast
5:40 PM 77.4 °F - 71.4 °F 82% 29.94 in 10.0 mi WSW 3.5 mph - N/A   Mostly Cloudy
5:58 PM 77.2 °F - 72.3 °F 85% 29.94 in 10.0 mi West 4.6 mph - N/A Rain Rain
6:16 PM 73.4 °F - 73.4 °F 100% 29.94 in 4.0 mi NW 3.5 mph - N/A Rain Light Rain
6:35 PM 73.6 °F - 73.6 °F 100% 29.92 in 10.0 mi Calm Calm - N/A   Scattered Clouds
6:36 PM 73.6 °F - 73.6 °F 100% 29.92 in 10.0 mi Calm Calm - N/A   Scattered Clouds
6:55 PM 73.9 °F - 73.9 °F 100% 29.92 in 10.0 mi Calm Calm - N/A   Scattered Clouds
6:56 PM 73.9 °F - 73.9 °F 100% 29.92 in 10.0 mi Calm Calm - N/A   Scattered Clouds
7:19 PM 74.3 °F - 74.3 °F 100% 29.91 in 10.0 mi Calm Calm - N/A   Scattered Clouds
7:37 PM 74.3 °F - 74.3 °F 100% 29.90 in 10.0 mi North 3.5 mph - N/A   Scattered Clouds
7:55 PM 73.8 °F - 73.8 °F 100% 29.90 in 7.0 mi NNW 4.6 mph - N/A   Mostly Cloudy
7:56 PM 73.8 °F - 73.8 °F 100% 29.90 in 7.0 mi NNW 5.8 mph - N/A   Mostly Cloudy
8:15 PM 72.7 °F - 72.7 °F 100% 29.91 in 10.0 mi North 4.6 mph - N/A   Overcast
8:35 PM 72.1 °F - 71.6 °F 98% 29.92 in 10.0 mi North 3.5 mph - N/A   Mostly Cloudy
8:58 PM 71.6 °F - 71.1 °F 98% 29.92 in 10.0 mi Calm Calm - N/A   Scattered Clouds
9:16 PM 71.1 °F - 71.1 °F 100% 29.92 in 10.0 mi Calm Calm - N/A   Clear
9:35 PM 70.9 °F - 70.7 °F 99% 29.93 in 10.0 mi Calm Calm - N/A   Scattered Clouds
9:36 PM 70.9 °F - 70.7 °F 99% 29.93 in 10.0 mi Calm Calm - N/A   Scattered Clouds
9:55 PM 70.2 °F - 70.2 °F 100% 29.95 in 10.0 mi Calm Calm - N/A   Clear
10:19 PM 69.6 °F - 69.6 °F 100% 29.95 in 7.0 mi Calm Calm - N/A   Clear
10:37 PM 69.4 °F - 69.4 °F 100% 29.96 in 7.0 mi Calm Calm - N/A   Clear
10:55 PM 68.9 °F - 68.9 °F 100% 29.97 in 10.0 mi Calm Calm - N/A   Clear
10:56 PM 68.9 °F - 68.9 °F 100% 29.97 in 10.0 mi Calm Calm - N/A   Clear
11:15 PM 69.1 °F - 69.1 °F 100% 29.97 in 7.0 mi Calm Calm - N/A   Clear
11:35 PM 68.2 °F - 68.2 °F 100% 29.98 in 10.0 mi Calm Calm - N/A   Clear
11:58 PM 68.2 °F - 68.2 °F 100% 29.98 in 7.0 mi Calm Calm - N/A   Clear